Flag for Canada Weather past 2 weeks in Pond Inlet, Nunavut Territory, Canada

Now
-24 °F

Sunny.


Feels Like: -24 °F
Forecast: -25 / -18 °F
Wind: 2 mph from Southeast

Location: Pond Inlet

Current Time: Mar 1, 2015 at 3:12:41 PM

Latest Report: Mar 1, 2015 at 2:00 PM


Visibility: 9 mi

Pressure: 29.80 "Hg

Humidity: 68%

Dew point: -31 °F

Location of Pond InletLocation

Historic Weather in Pond Inlet — Graph

°F

Pond Inlet temperature yesterday

Maximum temperature yesterday: -22 °F (at 2:00 PM)
Minimum temperature yesterday: -33 °F (at 12:00 AM)
Average temperature yesterday: -26 °F

Past Weeks' High & Low Weather Summary

 TemperatureHumidityPressure
High-22 °F (Feb 28, 2:00 PM)75% (Feb 15, 7:00 PM)30.52 "Hg (Feb 15, 7:00 PM)
Low-38 °F (Feb 17, 6:00 AM)59% (Feb 16, 7:00 PM)29.49 "Hg (Feb 25, 1:00 AM)
Average-30 °F68%29.87 "Hg
* Reported Feb 14 2:00 PM — Mar 1 2:00 PM, Pond Inlet, Weather by CustomWeather, © 2015

Note: Actual official high and low records may vary slightly from our data, if they occured in-between our weather recording intervals... More about our weather records

Advertising

Pond Inlet weather history for previous 24 hours

 ConditionsComfort  
Time TempWeatherWind HumidityBarometerVisibility
2:00 PM
Sun, Mar 1
-24 °FSunny.2 mph68%29.80 "Hg9 mi
1:00 PM-24 °FSunny.No wind68%29.79 "Hg6 mi
12:00 PM-24 °FPartly sunny.2 mph75%29.79 "Hg7 mi
11:00 AM-24 °FOvercast.No wind75%29.78 "Hg6 mi
10:00 AM-24 °FPartly sunny.3 mph75%29.77 "Hg9 mi
9:00 AM-26 °FScattered clouds.6 mph75%29.76 "Hg5 mi
8:00 AM-24 °FMostly cloudy.2 mph68%29.76 "Hg9 mi
7:00 AM-24 °FSunny.No wind68%29.75 "Hg8 mi
6:00 AM-26 °FSunny.3 mph75%29.74 "Hg8 mi
5:00 AM-26 °FPassing clouds.2 mph75%29.73 "Hg7 mi
4:03 AM-26 °FOvercast.3 mph75%29.72 "Hg6 mi
3:00 AM-26 °FLight snow. Passing clouds.5 mph67%29.71 "Hg9 mi
2:00 AM-24 °FLight snow. Overcast.No wind75%29.71 "Hg7 mi
1:00 AM-24 °FLight snow. Overcast.3 mph68%29.70 "Hg6 mi
12:00 AM-24 °FLight snow. Overcast.No wind68%29.69 "Hg8 mi
11:00 PM
Sat, Feb 28
-24 °FLight snow. Overcast.No wind68%29.67 "Hg7 mi
10:00 PM-26 °FLight snow. Overcast.5 mph67%29.67 "Hg9 mi
9:00 PM-26 °FLight snow. Mostly cloudy.2 mph75%29.66 "Hg9 mi
8:02 PM-24 °FLight snow. Overcast.2 mph75%29.66 "Hg6 mi
7:00 PM-26 °FLight snow. Overcast.7 mph75%29.64 "Hg5 mi
6:00 PM-24 °FLight snow. Overcast.6 mph75%29.63 "Hg4 mi
5:00 PM-22 °FSnow flurries. Overcast.3 mph68%29.62 "Hg9 mi
4:00 PM-24 °FSnow flurries. Overcast.5 mph75%29.60 "Hg5 mi
3:00 PM-22 °FSnow flurries. Mostly cloudy.2 mph75%29.59 "Hg6 mi
Weather by CustomWeather, © 2015

See weather overviewHow to use our weather pages